QPF
0.00 0.00 0.00 0.00 0.00 0.00 0.00 0.00 0.00 0.00 0.00 0.00 0.00 0.00 0.00 0.00 0.00 0.00 0.00 0.00 0.00 0.00 0.00 0.00 0.00 0.00 0.02 0.02 0.00 0.00 0.01 0.01 0.01 0.01 0.01 0.00 0.00 0.01 0.02 0.00 0.00 0.00 0.00 0.00 0.00 0.00 0.00 0.00 0.00
0.00 0.00 0.00 0.00 0.00 0.00 0.00 0.00 0.00 0.00 0.00 0.00 0.00 0.00 0.00 0.00 0.00 0.00 0.00 0.00 0.00 0.00 0.00 0.00 0.00 0.00 0.00 0.00 0.00 0.00 0.00 0.00 0.00 0.00 0.00 0.00 0.00 0.01 0.02 0.01 0.00 0.00 0.00 0.00 0.00 0.00 0.00 0.00 0.00
0.00 0.00 0.00 0.00 0.00 0.00 0.00 0.00 0.00 0.00 0.00 0.00 0.00 0.00 0.00 0.00 0.00 0.00 0.00 0.00 0.00 0.00 0.00 0.00 0.00 0.00 0.00 0.00 0.00 0.00 0.00 0.00 0.00 0.00 0.00 0.00 0.00 0.00 0.01 0.00 0.00 0.00 0.00 0.00 0.00 0.00 0.00 0.00 0.00
0.00 0.00 0.00 0.00 0.00 0.00 0.00 0.00 0.00 0.00 0.00 0.00 0.00 0.00 0.00 0.00 0.00 0.00 0.00 0.00 0.00 0.00 0.00 0.00 0.00 0.00 0.00 0.00 0.00 0.00 0.00 0.00 0.00 0.00 0.00 0.00 0.00 0.00 0.01 0.00 0.00 0.00 0.00 0.00 0.00 0.00 0.00 0.00 0.00
0.00 0.00 0.00 0.00 0.00 0.00 0.00 0.00 0.00 0.00 0.00 0.00 0.00 0.00 0.00 0.00 0.00 0.00 0.00 0.00 0.00 0.00 0.00 0.00 0.00 0.00 0.00 0.00 0.00 0.00 0.00 0.00 0.00 0.00 0.00 0.00 0.00 0.00 0.01 0.00 0.00 0.00 0.00 0.00 0.00 0.00 0.00 0.00 0.00
0.00 0.00 0.00 0.00 0.00 0.00 0.00 0.00 0.00 0.00 0.00 0.00 0.00 0.00 0.00 0.00 0.00 0.00 0.00 0.00 0.00 0.00 0.00 0.00 0.00 0.00 0.00 0.00 0.00 0.00 0.00 0.00 0.00 0.00 0.00 0.00 0.00 0.00 0.01 0.01 0.00 0.00 0.00 0.00 0.00 0.00 0.00 0.00 0.00
0.00 0.00 0.00 0.00 0.00 0.00 0.00 0.00 0.00 0.00 0.00 0.00 0.00 0.00 0.00 0.00 0.00 0.00 0.00 0.00 0.00 0.00 0.00 0.00 0.00 0.00 0.00 0.00 0.00 0.00 0.00 0.00 0.00 0.00 0.00 0.00 0.00 0.00 0.00 0.01 0.00 0.00 0.00 0.00 0.00 0.00 0.00 0.00 0.00
0.00 0.00 0.00 0.00 0.00 0.00 0.00 0.00 0.00 0.00 0.00 0.00 0.00 0.00 0.00 0.00 0.00 0.00 0.00 0.00 0.00 0.00 0.00 0.00 0.00 0.00 0.00 0.00 0.00 0.00 0.00 0.00 0.00 0.00 0.00 0.00 0.00 0.00 0.00 0.00 0.00 0.00 0.00 0.00 0.00 0.00 0.00 0.00 0.00
0.00 0.00 0.00 0.00 0.00 0.00 0.00 0.00 0.00 0.00 0.00 0.00 0.00 0.00 0.00 0.00 0.00 0.00 0.00 0.00 0.00 0.00 0.00 0.00 0.00 0.00 0.00 0.00 0.00 0.00 0.00 0.00 0.00 0.00 0.00 0.00 0.00 0.00 0.00 0.00 0.00 0.00 0.00 0.00 0.00 0.00 0.00 0.00 0.00
0.00 0.00 0.00 0.00 0.00 0.00 0.00 0.00 0.00 0.00 0.00 0.00 0.00 0.00 0.00 0.00 0.00 0.00 0.00 0.00 0.00 0.00 0.00 0.00 0.00 0.00 0.00 0.00 0.00 0.00 0.00 0.00 0.00 0.00 0.00 0.00 0.00 0.00 0.00 0.00 0.00 0.00 0.00 0.00 0.00 0.00 0.00 0.00 0.00
0.00 0.00 0.00 0.00 0.00 0.00 0.00 0.00 0.00 0.00 0.00 0.00 0.00 0.00 0.00 0.00 0.00 0.00 0.00 0.00 0.00 0.00 0.00 0.00 0.00 0.00 0.00 0.00 0.00 0.00 0.00 0.00 0.00 0.00 0.00 0.00 0.00 0.00 0.00 0.00 0.00 0.00 0.00 0.00 0.00 0.00 0.00 0.00 0.00
0.00 0.00 0.00 0.00 0.00 0.00 0.00 0.00 0.00 0.00 0.00 0.00 0.00 0.00 0.00 0.00 0.00 0.00 0.00 0.00 0.00 0.00 0.00 0.00 0.00 0.00 0.00 0.00 0.00 0.00 0.00 0.00 0.00 0.00 0.00 0.00 0.00 0.00 0.00 0.00 0.00 0.00 0.00 0.00 0.00 0.00 0.00 0.00 0.00
0.00 0.00 0.00 0.00 0.00 0.00 0.00 0.00 0.00 0.00 0.00 0.00 0.00 0.00 0.00 0.00 0.00 0.00 0.00 0.00 0.00 0.00 0.00 0.00 0.00 0.00 0.00 0.00 0.00 0.00 0.00 0.00 0.00 0.00 0.00 0.00 0.00 0.00 0.00 0.00 0.00 0.00 0.00 0.00 0.00 0.00 0.00 0.00 0.00
0.00 0.00 0.00 0.00 0.00 0.00 0.00 0.00 0.00 0.00 0.00 0.00 0.00 0.00 0.00 0.00 0.00 0.00 0.00 0.00 0.00 0.00 0.00 0.00 0.00 0.00 0.00 0.00 0.00 0.00 0.00 0.00 0.00 0.00 0.00 0.00 0.00 0.00 0.00 0.00 0.00 0.00 0.00 0.00 0.00 0.00 0.00 0.00 0.00
0.00 0.00 0.00 0.00 0.00 0.00 0.00 0.00 0.00 0.00 0.00 0.00 0.00 0.00 0.00 0.00 0.00 0.00 0.00 0.00 0.00 0.00 0.00 0.00 0.00 0.00 0.00 0.00 0.00 0.00 0.00 0.00 0.00 0.00 0.00 0.00 0.00 0.00 0.00 0.00 0.00 0.00 0.00 0.00 0.00 0.00 0.00 0.00 0.00
0.00 0.00 0.00 0.00 0.00 0.00 0.00 0.00 0.00 0.00 0.00 0.00 0.00 0.00 0.00 0.00 0.00 0.00 0.00 0.00 0.00 0.00 0.00 0.00 0.00 0.00 0.00 0.00 0.00 0.00 0.00 0.00 0.00 0.00 0.00 0.00 0.00 0.00 0.00 0.00 0.00 0.00 0.00 0.00 0.00 0.00 0.00 0.00 0.00
0.00 0.00 0.00 0.00 0.00 0.00 0.00 0.00 0.00 0.00 0.00 0.00 0.00 0.00 0.00 0.00 0.00 0.00 0.00 0.00 0.00 0.00 0.00 0.00 0.00 0.00 0.00 0.00 0.00 0.00 0.00 0.00 0.00 0.00 0.00 0.00 0.00 0.00 0.00 0.00 0.00 0.00 0.00 0.00 0.00 0.00 0.00 0.00 0.00
0.00 0.00 0.00 0.00 0.00 0.00 0.00 0.00 0.00 0.00 0.00 0.00 0.00 0.00 0.00 0.00 0.00 0.00 0.00 0.00 0.00 0.00 0.00 0.00 0.00 0.00 0.00 0.00 0.00 0.00 0.00 0.00 0.00 0.00 0.00 0.00 0.00 0.00 0.00 0.00 0.00 0.00 0.00 0.00 0.00 0.00 0.00 0.00 0.00
0.00 0.00 0.00 0.00 0.00 0.00 0.00 0.00 0.00 0.00 0.00 0.00 0.00 0.00 0.00 0.00 0.00 0.00 0.00 0.00 0.00 0.00 0.00 0.00 0.00 0.00 0.00 0.00 0.00 0.00 0.00 0.00 0.00 0.00 0.00 0.00 0.00 0.00 0.00 0.00 0.00 0.00 0.00 0.00 0.00 0.00 0.00 0.00 0.00
0.00 0.00 0.00 0.00 0.00 0.00 0.00 0.00 0.00 0.00 0.00 0.00 0.00 0.00 0.00 0.00 0.00 0.00 0.00 0.00 0.00 0.00 0.00 0.00 0.00 0.00 0.00 0.00 0.00 0.00 0.00 0.00 0.00 0.00 0.00 0.00 0.00 0.00 0.00 0.00 0.00 0.00 0.00 0.00 0.00 0.00 0.00 0.00 0.00
0.02 0.01 0.00 0.00 0.00 0.00 0.00 0.00 0.00 0.00 0.00 0.00 0.00 0.00 0.00 0.00 0.00 0.00 0.00 0.00 0.00 0.00 0.00 0.00 0.00 0.00 0.00 0.00 0.00 0.00 0.00 0.00 0.00 0.00 0.00 0.00 0.00 0.00 0.00 0.00 0.00 0.00 0.00 0.00 0.00 0.00 0.00 0.00 0.00
0.01 0.00 0.01 0.01 0.01 0.00 0.00 0.00 0.00 0.00 0.00 0.00 0.00 0.00 0.00 0.00 0.00 0.00 0.00 0.00 0.00 0.00 0.00 0.00 0.00 0.00 0.00 0.00 0.00 0.00 0.00 0.00 0.00 0.00 0.00 0.00 0.00 0.00 0.00 0.00 0.00 0.00 0.00 0.00 0.00 0.00 0.00 0.00 0.00
0.00 0.00 0.01 0.01 0.02 0.02 0.00 0.01 0.00 0.00 0.00 0.00 0.00 0.00 0.00 0.00 0.00 0.00 0.00 0.00 0.00 0.00 0.00 0.00 0.00 0.00 0.00 0.00 0.00 0.00 0.00 0.00 0.00 0.00 0.00 0.00 0.00 0.00 0.00 0.00 0.00 0.00 0.00 0.00 0.00 0.00 0.00 0.00 0.00
0.02 0.02 0.02 0.02 0.01 0.02 0.00 0.00 0.00 0.00 0.00 0.00 0.00 0.00 0.00 0.00 0.00 0.00 0.00 0.00 0.00 0.00 0.00 0.00 0.00 0.00 0.00 0.00 0.00 0.00 0.00 0.00 0.00 0.00 0.00 0.00 0.00 0.00 0.00 0.00 0.00 0.00 0.00 0.00 0.00 0.00 0.00 0.00 0.00
0.01 0.02 0.02 0.01 0.01 0.00 0.00 0.00 0.00 0.00 0.00 0.00 0.00 0.00 0.00 0.00 0.00 0.00 0.00 0.00 0.00 0.00 0.00 0.00 0.00 0.00 0.00 0.00 0.00 0.00 0.00 0.00 0.00 0.00 0.00 0.00 0.00 0.00 0.00 0.00 0.00 0.00 0.00 0.00 0.00 0.00 0.00 0.00 0.00
0.00 0.02 0.02 0.01 0.00 0.00 0.00 0.01 0.00 0.00 0.00 0.00 0.00 0.00 0.00 0.00 0.00 0.00 0.00 0.00 0.00 0.00 0.00 0.00 0.00 0.00 0.00 0.00 0.00 0.00 0.00 0.00 0.00 0.00 0.00 0.00 0.00 0.00 0.00 0.00 0.00 0.00 0.00 0.00 0.00 0.00 0.00 0.00 0.00
0.02 0.05 0.02 0.04 0.00 0.01 0.00 0.01 0.00 0.00 0.00 0.00 0.00 0.00 0.00 0.00 0.00 0.00 0.00 0.00 0.00 0.00 0.00 0.00 0.00 0.00 0.00 0.00 0.00 0.00 0.00 0.00 0.00 0.00 0.00 0.00 0.00 0.00 0.00 0.00 0.00 0.00 0.00 0.00 0.00 0.00 0.00 0.00 0.00
0.01 0.02 0.06 0.07 0.04 0.01 0.00 0.00 0.00 0.00 0.00 0.00 0.00 0.00 0.00 0.00 0.00 0.00 0.00 0.00 0.00 0.00 0.00 0.00 0.00 0.00 0.00 0.00 0.00 0.00 0.00 0.00 0.00 0.00 0.00 0.00 0.00 0.00 0.00 0.00 0.00 0.00 0.00 0.00 0.00 0.00 0.00 0.00 0.00
0.01 0.03 0.03 0.04 0.03 0.01 0.00 0.00 0.00 0.00 0.00 0.00 0.00 0.00 0.00 0.00 0.00 0.00 0.00 0.00 0.00 0.00 0.00 0.00 0.00 0.00 0.00 0.00 0.00 0.00 0.00 0.00 0.00 0.00 0.00 0.00 0.00 0.00 0.00 0.00 0.00 0.00 0.00 0.00 0.00 0.00 0.00 0.00 0.00
0.00 0.00 0.00 0.01 0.00 0.00 0.00 0.00 0.00 0.00 0.00 0.00 0.00 0.00 0.00 0.00 0.00 0.00 0.00 0.00 0.00 0.00 0.00 0.00 0.00 0.00 0.00 0.00 0.00 0.00 0.00 0.00 0.00 0.00 0.00 0.00 0.00 0.00 0.00 0.00 0.00 0.00 0.00 0.00 0.00 0.00 0.00 0.00 0.00
MSLP
1014.51 1013.81 1013.69 1013.78 1015.16 1016.15 1016.41 1016.12 1015.31 1015.25 1015.36 1015.49 1015.50 1015.90 1017.04 1017.65 1018.01 1018.77 1018.36 1018.81 1019.25 1019.97 1020.33 1020.46 1020.51 1020.67 1020.93 1021.23 1021.32 1021.44 1021.39 1021.61 1021.84 1022.07 1022.30 1022.47 1022.44 1022.52 1022.66 1022.92 1023.13 1023.07 1023.13 1023.24 1023.32 1023.45 1023.55 1023.60 1023.70
1014.78 1013.95 1013.90 1014.57 1015.79 1016.77 1017.13 1016.53 1016.08 1015.66 1015.44 1015.45 1015.61 1016.13 1016.96 1018.14 1018.18 1018.40 1018.39 1018.86 1019.08 1019.77 1020.31 1020.63 1020.73 1020.86 1021.06 1021.28 1021.48 1021.61 1021.71 1021.87 1022.09 1022.21 1022.41 1022.57 1022.56 1022.75 1022.86 1023.15 1023.40 1023.39 1023.47 1023.49 1023.58 1023.68 1023.83 1024.03 1024.04
1014.82 1014.45 1015.44 1015.65 1016.35 1016.76 1016.63 1016.31 1015.89 1015.67 1015.39 1015.49 1015.88 1016.10 1017.06 1018.18 1018.33 1018.30 1018.05 1018.51 1019.09 1019.75 1020.30 1020.79 1020.96 1021.06 1021.18 1021.38 1021.58 1021.87 1022.06 1022.19 1022.19 1022.41 1022.57 1022.60 1022.68 1022.96 1023.06 1023.24 1023.57 1023.70 1023.57 1023.81 1023.90 1024.05 1024.16 1024.31 1024.27
1015.20 1015.21 1015.90 1016.46 1016.74 1016.25 1016.05 1015.83 1015.54 1015.37 1015.43 1015.49 1015.87 1016.93 1017.56 1017.94 1018.08 1018.13 1018.13 1018.36 1019.08 1019.78 1020.38 1020.80 1021.08 1021.28 1021.31 1021.54 1021.73 1021.97 1022.19 1022.31 1022.42 1022.58 1022.73 1022.83 1022.89 1023.09 1023.20 1023.47 1023.77 1023.81 1023.90 1024.05 1024.19 1024.36 1024.45 1024.49 1024.45
1015.72 1016.33 1017.02 1017.21 1016.93 1016.37 1015.79 1015.41 1015.40 1015.39 1015.34 1015.60 1015.86 1017.03 1017.88 1018.22 1017.95 1017.99 1018.30 1018.53 1019.19 1019.82 1020.32 1020.84 1021.08 1021.39 1021.55 1021.67 1021.80 1022.08 1022.28 1022.38 1022.61 1022.77 1022.86 1022.97 1023.02 1023.16 1023.38 1023.62 1023.95 1024.03 1024.13 1024.29 1024.42 1024.56 1024.68 1024.65 1024.58
1016.80 1017.22 1017.91 1017.87 1017.15 1016.13 1015.76 1015.34 1015.36 1015.64 1015.72 1015.54 1015.81 1016.92 1018.00 1017.96 1018.43 1018.31 1018.52 1018.69 1018.89 1019.72 1020.27 1020.76 1021.16 1021.37 1021.65 1021.82 1021.96 1022.10 1022.36 1022.52 1022.75 1022.93 1023.06 1023.14 1023.25 1023.33 1023.48 1023.68 1024.01 1024.20 1024.28 1024.30 1024.50 1024.75 1024.81 1024.74 1024.68
1017.57 1018.19 1018.44 1017.98 1017.49 1016.49 1015.83 1015.45 1015.51 1015.66 1015.98 1016.01 1015.81 1016.76 1018.13 1018.20 1018.28 1018.46 1018.62 1018.57 1018.79 1019.50 1020.24 1020.72 1021.17 1021.37 1021.69 1021.90 1022.08 1022.24 1022.42 1022.58 1022.74 1023.08 1023.27 1023.28 1023.34 1023.49 1023.73 1023.77 1023.93 1024.20 1024.26 1024.46 1024.65 1024.87 1024.96 1024.84 1024.73
1017.64 1018.48 1018.61 1018.13 1017.58 1016.76 1016.02 1015.69 1015.67 1015.57 1016.21 1016.19 1016.20 1017.01 1017.97 1018.01 1017.98 1018.42 1018.71 1018.79 1018.93 1019.40 1020.04 1020.62 1020.98 1021.44 1021.68 1021.94 1022.09 1022.24 1022.50 1022.76 1022.90 1023.09 1023.37 1023.54 1023.60 1023.66 1023.76 1023.87 1023.98 1024.22 1024.42 1024.67 1024.80 1024.90 1024.94 1024.93 1024.86
1017.63 1018.78 1018.72 1018.11 1017.34 1016.74 1016.16 1015.87 1015.73 1015.79 1016.12 1016.65 1016.99 1017.24 1017.15 1017.54 1018.10 1018.51 1018.83 1018.96 1019.24 1019.58 1019.83 1020.26 1020.69 1021.07 1021.56 1021.81 1022.12 1022.28 1022.44 1022.77 1023.17 1023.38 1023.46 1023.67 1023.72 1023.70 1023.83 1023.93 1023.97 1024.15 1024.53 1024.80 1024.99 1025.09 1025.13 1025.14 1025.06
1018.19 1018.94 1018.39 1017.59 1017.19 1017.03 1016.49 1016.20 1016.29 1016.37 1016.44 1016.83 1017.27 1017.61 1018.02 1018.08 1018.39 1018.73 1018.93 1018.56 1019.02 1019.18 1019.56 1019.80 1020.20 1020.59 1021.09 1021.43 1021.85 1022.23 1022.53 1022.75 1022.98 1023.34 1023.51 1023.67 1023.81 1023.83 1023.87 1024.12 1024.28 1024.44 1024.64 1024.83 1024.94 1025.09 1025.19 1025.28 1025.29
1018.17 1018.45 1018.14 1017.48 1017.21 1017.06 1017.09 1016.89 1016.61 1016.56 1016.83 1016.69 1017.19 1017.87 1018.45 1018.80 1018.81 1018.95 1019.10 1018.68 1018.37 1018.50 1019.02 1019.45 1019.80 1020.06 1020.56 1020.84 1021.50 1021.92 1022.41 1022.69 1022.82 1023.03 1023.32 1023.57 1023.77 1024.00 1024.11 1024.30 1024.50 1024.70 1024.80 1024.94 1024.98 1025.04 1025.18 1025.29 1025.29
1018.49 1018.16 1018.01 1017.69 1017.16 1017.26 1017.06 1017.12 1017.24 1016.96 1016.75 1016.63 1016.70 1016.80 1017.97 1018.68 1018.92 1018.88 1018.86 1018.86 1018.58 1018.33 1018.38 1018.84 1019.27 1019.70 1019.95 1020.44 1020.80 1021.41 1022.03 1022.39 1022.56 1022.63 1022.79 1023.29 1023.66 1023.86 1024.07 1024.28 1024.53 1024.69 1024.81 1025.02 1025.07 1025.12 1025.08 1025.14 1025.07
1018.47 1018.36 1018.04 1017.78 1017.42 1017.42 1017.24 1017.15 1017.22 1017.16 1016.86 1016.63 1016.53 1016.89 1017.28 1017.81 1018.20 1018.52 1018.54 1018.56 1018.39 1018.37 1017.99 1018.29 1018.63 1019.19 1019.64 1019.97 1020.41 1020.76 1021.25 1021.78 1022.06 1022.07 1022.31 1022.70 1023.17 1023.43 1023.63 1023.85 1024.10 1024.36 1024.52 1024.69 1024.89 1024.88 1024.92 1024.92 1024.77
1018.83 1018.74 1018.49 1018.10 1017.98 1017.80 1017.70 1017.35 1017.42 1017.04 1016.62 1016.71 1016.58 1016.74 1016.86 1017.02 1017.22 1017.60 1018.10 1018.21 1018.12 1017.92 1017.65 1017.67 1018.03 1018.46 1018.95 1019.49 1019.67 1020.16 1020.51 1020.91 1021.37 1021.58 1021.77 1022.15 1022.55 1022.90 1023.25 1023.56 1023.76 1023.93 1024.05 1024.17 1024.37 1024.55 1024.58 1024.61 1024.75
1019.04 1019.09 1018.79 1018.53 1018.37 1018.06 1017.85 1017.43 1017.21 1017.08 1016.93 1016.76 1016.73 1016.36 1016.40 1016.26 1016.32 1016.38 1016.29 1016.85 1017.16 1017.25 1017.26 1017.08 1017.40 1017.77 1018.32 1018.71 1019.06 1019.40 1019.80 1020.27 1020.51 1020.88 1021.19 1021.64 1021.91 1022.33 1022.63 1023.07 1023.29 1023.36 1023.52 1023.71 1023.97 1024.13 1024.29 1024.42 1024.52
1019.65 1019.74 1019.57 1018.68 1018.49 1018.22 1018.36 1016.53 1017.09 1016.92 1016.91 1016.61 1016.39 1016.21 1015.79 1015.58 1015.27 1015.20 1015.12 1015.48 1016.02 1016.53 1016.83 1016.96 1016.91 1017.28 1017.74 1018.12 1018.46 1018.61 1019.14 1019.55 1019.99 1020.25 1020.54 1020.95 1021.33 1021.62 1022.06 1022.42 1022.74 1022.85 1023.13 1023.37 1023.61 1023.86 1024.16 1024.32 1024.37
1020.43 1020.12 1019.92 1019.24 1018.78 1018.74 1018.53 1016.64 1016.75 1016.37 1016.49 1016.48 1016.16 1015.99 1015.41 1014.79 1014.41 1014.19 1014.17 1014.33 1014.72 1015.20 1015.88 1016.21 1016.18 1016.35 1016.86 1017.38 1017.91 1018.16 1018.49 1018.82 1019.17 1019.70 1019.99 1020.16 1020.53 1021.01 1021.42 1021.74 1021.99 1022.23 1022.57 1022.87 1023.08 1023.52 1023.71 1024.01 1024.12
1020.27 1020.37 1020.00 1019.22 1019.05 1018.71 1018.30 1016.88 1016.87 1016.48 1016.25 1015.92 1015.62 1015.15 1014.97 1014.32 1013.48 1013.10 1013.03 1013.15 1013.48 1014.02 1014.55 1015.09 1015.68 1015.82 1016.20 1016.73 1017.17 1017.70 1017.92 1018.18 1018.47 1018.73 1019.14 1019.61 1019.85 1020.24 1020.81 1021.19 1021.40 1021.70 1022.12 1022.42 1022.61 1022.94 1023.26 1023.38 1023.58
1020.17 1020.09 1019.73 1019.26 1019.34 1019.26 1018.63 1017.54 1016.99 1016.39 1016.05 1015.55 1015.11 1014.48 1014.12 1013.65 1012.84 1012.16 1012.01 1012.10 1012.40 1012.79 1013.64 1014.03 1014.52 1015.23 1015.68 1016.10 1016.46 1017.05 1017.06 1017.54 1017.91 1018.05 1018.36 1018.77 1019.18 1019.59 1019.99 1020.44 1020.75 1021.04 1021.44 1021.69 1022.01 1022.37 1022.77 1023.14 1023.17
1020.33 1020.25 1019.54 1019.41 1019.50 1019.63 1019.01 1017.97 1016.93 1016.44 1015.48 1014.85 1014.25 1013.60 1013.40 1012.66 1012.04 1011.47 1011.16 1011.36 1011.71 1011.73 1012.22 1012.99 1013.28 1013.87 1014.66 1015.20 1015.41 1015.79 1016.38 1016.59 1016.90 1017.36 1017.65 1017.87 1018.26 1018.63 1019.12 1019.50 1019.90 1020.25 1020.70 1021.04 1021.35 1021.67 1022.19 1022.32 1022.58
1019.95 1019.92 1019.67 1019.95 1019.88 1019.62 1019.58 1018.39 1016.67 1015.37 1014.46 1013.86 1012.95 1012.89 1012.15 1011.83 1011.23 1010.78 1010.47 1010.14 1010.37 1010.91 1011.20 1011.78 1011.91 1012.07 1012.78 1013.70 1014.86 1015.45 1016.06 1016.48 1016.50 1016.48 1016.79 1016.80 1017.17 1017.55 1017.97 1018.42 1018.86 1019.34 1019.65 1019.99 1020.37 1020.76 1021.11 1021.51 1021.89
1019.71 1019.52 1019.81 1020.00 1020.50 1019.92 1019.76 1018.09 1016.17 1015.57 1014.32 1013.23 1012.81 1012.26 1011.46 1010.96 1010.53 1010.09 1009.58 1009.37 1009.50 1009.56 1009.91 1010.04 1010.72 1011.10 1011.67 1012.63 1013.68 1014.00 1014.23 1014.62 1014.40 1014.79 1015.39 1015.84 1016.17 1016.59 1016.98 1017.38 1017.69 1018.21 1018.65 1019.05 1019.33 1019.77 1020.10 1020.63 1021.00
1019.13 1019.36 1019.70 1019.85 1019.93 1019.97 1019.55 1019.03 1015.39 1014.96 1013.76 1012.81 1012.42 1011.55 1010.55 1009.81 1009.38 1008.93 1008.62 1008.25 1008.10 1008.65 1009.03 1009.27 1009.64 1010.16 1010.61 1011.48 1012.15 1013.06 1013.48 1013.50 1013.99 1014.35 1014.50 1014.80 1015.16 1015.43 1015.88 1016.26 1016.75 1017.13 1017.51 1017.81 1018.30 1018.79 1019.16 1019.41 1019.79
1018.97 1019.27 1019.50 1019.72 1020.07 1019.34 1018.49 1018.61 1015.93 1014.69 1013.12 1012.12 1011.41 1010.58 1009.70 1009.40 1008.83 1008.08 1007.42 1007.48 1007.52 1007.54 1008.14 1008.57 1008.88 1009.11 1009.63 1010.36 1011.16 1011.62 1012.02 1012.57 1013.11 1013.17 1013.36 1013.55 1013.85 1014.24 1014.66 1015.17 1015.59 1015.81 1016.30 1016.66 1016.99 1017.50 1017.98 1018.23 1018.58
1018.92 1019.61 1019.97 1019.99 1019.90 1018.41 1017.19 1017.76 1015.43 1013.49 1011.79 1011.32 1010.28 1009.93 1009.30 1008.91 1008.42 1007.76 1007.27 1007.28 1006.91 1007.17 1007.45 1007.81 1008.15 1008.51 1008.99 1009.23 1009.83 1010.25 1010.67 1011.31 1011.57 1011.87 1012.13 1012.54 1012.87 1013.05 1013.14 1013.80 1014.39 1014.64 1014.96 1015.45 1015.89 1016.49 1016.74 1016.97 1017.28
1018.24 1018.99 1019.17 1019.17 1019.05 1018.49 1017.54 1016.43 1013.76 1012.35 1011.01 1010.51 1010.08 1009.29 1008.97 1008.56 1007.82 1007.44 1007.00 1006.86 1006.50 1006.72 1006.89 1007.07 1007.29 1007.45 1007.73 1007.93 1008.15 1008.80 1009.31 1009.72 1009.89 1010.31 1010.56 1010.88 1011.29 1011.45 1011.88 1012.37 1013.02 1013.56 1013.96 1014.49 1015.01 1015.37 1015.60 1015.90 1016.11
1017.46 1018.25 1018.23 1019.12 1018.94 1018.96 1017.22 1015.54 1013.29 1011.64 1010.67 1010.05 1009.76 1009.38 1008.92 1008.20 1007.65 1007.17 1006.89 1006.35 1006.11 1006.45 1006.75 1006.93 1006.88 1006.92 1007.09 1007.19 1007.25 1007.47 1008.05 1008.46 1008.54 1008.72 1009.20 1009.66 1010.02 1010.36 1010.77 1011.18 1011.75 1012.36 1012.93 1013.34 1013.90 1014.22 1014.41 1014.82 1015.04
1016.12 1017.09 1018.40 1019.09 1018.94 1018.15 1016.45 1014.85 1012.58 1010.85 1010.45 1010.09 1009.91 1009.90 1009.41 1008.41 1007.76 1007.23 1007.03 1006.48 1006.49 1006.66 1006.77 1006.94 1006.99 1006.85 1006.72 1006.71 1006.79 1006.69 1006.78 1007.14 1007.51 1007.81 1007.99 1008.42 1008.66 1009.10 1009.60 1010.05 1010.49 1011.04 1011.69 1012.09 1012.66 1012.97 1013.25 1013.67 1013.90
1016.53 1016.87 1017.61 1017.90 1018.32 1017.59 1015.89 1013.92 1011.23 1010.85 1010.77 1010.42 1010.43 1010.45 1009.74 1008.90 1008.28 1007.59 1007.08 1006.80 1006.92 1007.06 1006.81 1006.68 1006.69 1006.66 1006.43 1006.20 1006.20 1006.20 1006.16 1006.19 1006.56 1006.73 1006.91 1007.11 1007.62 1008.10 1008.44 1008.70 1009.26 1009.81 1010.35 1010.79 1011.33 1011.68 1012.01 1012.28 1012.50
1015.35 1015.65 1016.70 1017.60 1017.50 1017.27 1016.13 1013.52 1011.21 1010.50 1010.62 1010.60 1010.65 1010.70 1010.19 1009.96 1009.40 1008.92 1008.17 1007.51 1007.33 1007.52 1007.42 1006.83 1006.40 1006.21 1005.83 1005.72 1005.65 1005.53 1005.40 1005.31 1005.38 1005.53 1005.83 1006.24 1006.54 1006.90 1007.21 1007.62 1008.01 1008.37 1008.77 1009.20 1009.81 1010.33 1010.58 1010.94 1011.30
Thickness
5756 5763 5767 5760 5723 5708 5697 5713 5740 5731 5729 5739 5742 5734 5721 5721 5714 5697 5725 5722 5718 5710 5707 5706 5705 5704 5704 5703 5703 5702 5704 5702 5700 5699 5696 5694 5695 5694 5692 5691 5690 5691 5691 5690 5691 5690 5689 5689 5688
5752 5760 5758 5741 5707 5682 5693 5717 5717 5725 5737 5742 5742 5737 5726 5710 5725 5723 5724 5723 5720 5714 5708 5706 5706 5704 5703 5703 5702 5702 5701 5700 5699 5698 5697 5695 5695 5694 5692 5690 5689 5689 5689 5689 5689 5688 5688 5687 5687
5749 5755 5730 5716 5702 5685 5697 5719 5722 5731 5741 5741 5735 5741 5731 5716 5725 5726 5733 5726 5720 5714 5710 5705 5705 5704 5703 5702 5701 5700 5699 5698 5699 5697 5696 5696 5695 5693 5691 5690 5688 5688 5689 5688 5687 5686 5686 5685 5685
5736 5735 5728 5702 5699 5717 5719 5722 5731 5731 5738 5743 5741 5720 5729 5734 5728 5733 5735 5730 5721 5715 5710 5707 5704 5703 5703 5701 5700 5699 5698 5698 5697 5697 5695 5694 5693 5692 5691 5689 5688 5688 5687 5687 5685 5685 5684 5684 5684
5727 5715 5694 5694 5700 5718 5725 5730 5733 5728 5733 5733 5740 5721 5717 5729 5736 5736 5733 5729 5722 5715 5712 5707 5704 5702 5701 5700 5699 5697 5697 5697 5696 5695 5694 5693 5692 5691 5689 5688 5686 5687 5687 5686 5684 5683 5683 5682 5682
5700 5702 5678 5676 5693 5714 5726 5730 5731 5728 5731 5735 5732 5725 5716 5731 5729 5733 5731 5729 5724 5716 5712 5708 5704 5702 5700 5699 5697 5697 5695 5695 5695 5694 5692 5691 5689 5689 5689 5688 5686 5685 5685 5685 5683 5681 5681 5681 5681
5691 5680 5675 5685 5688 5700 5718 5728 5722 5725 5726 5727 5735 5722 5715 5723 5729 5730 5728 5728 5725 5717 5711 5708 5704 5702 5699 5697 5696 5695 5695 5694 5694 5691 5691 5690 5689 5688 5687 5686 5687 5685 5684 5682 5681 5679 5679 5680 5680
5687 5677 5680 5684 5681 5687 5710 5723 5726 5724 5722 5733 5735 5717 5708 5723 5730 5728 5728 5725 5724 5718 5711 5707 5704 5701 5699 5696 5695 5694 5693 5692 5691 5690 5688 5687 5687 5686 5686 5685 5684 5683 5681 5680 5679 5678 5678 5677 5677
5692 5659 5661 5679 5688 5692 5706 5709 5722 5726 5721 5723 5723 5725 5730 5730 5727 5724 5722 5722 5718 5717 5714 5708 5704 5702 5698 5697 5694 5693 5692 5690 5688 5687 5686 5684 5684 5685 5684 5683 5682 5681 5679 5678 5676 5675 5674 5674 5673
5667 5650 5667 5688 5691 5687 5699 5708 5709 5710 5712 5713 5714 5720 5722 5722 5721 5717 5715 5720 5717 5717 5715 5710 5705 5703 5700 5697 5695 5692 5690 5689 5688 5686 5685 5684 5683 5682 5682 5681 5680 5679 5677 5676 5674 5673 5672 5671 5670
5669 5654 5673 5685 5688 5691 5687 5693 5707 5705 5699 5708 5709 5709 5713 5711 5711 5711 5712 5715 5720 5719 5716 5712 5707 5704 5701 5700 5696 5693 5690 5688 5687 5686 5684 5683 5682 5680 5679 5678 5677 5676 5675 5674 5672 5671 5669 5668 5667
5652 5667 5671 5677 5685 5684 5684 5688 5685 5699 5702 5710 5717 5719 5712 5708 5706 5708 5709 5708 5714 5717 5716 5714 5709 5705 5703 5699 5698 5695 5691 5688 5687 5687 5686 5683 5682 5680 5679 5677 5675 5673 5672 5671 5670 5669 5668 5666 5665
5646 5659 5665 5672 5678 5675 5683 5682 5680 5685 5700 5706 5711 5712 5713 5710 5708 5707 5708 5709 5709 5711 5716 5713 5712 5706 5702 5699 5696 5695 5693 5689 5688 5688 5687 5684 5681 5680 5679 5677 5675 5673 5671 5670 5668 5667 5666 5664 5663
5644 5644 5654 5662 5664 5665 5663 5673 5674 5688 5697 5697 5705 5702 5709 5712 5712 5709 5705 5704 5705 5709 5714 5715 5712 5707 5704 5700 5697 5695 5693 5691 5689 5687 5686 5685 5682 5680 5678 5676 5674 5673 5671 5670 5668 5666 5665 5663 5660
5636 5633 5639 5648 5655 5652 5660 5659 5666 5680 5684 5690 5695 5701 5702 5711 5715 5713 5715 5711 5709 5709 5711 5714 5713 5708 5704 5702 5699 5697 5694 5691 5690 5688 5686 5683 5682 5680 5677 5675 5674 5673 5671 5669 5666 5665 5662 5660 5658
5617 5616 5612 5638 5644 5648 5643 5653 5671 5674 5674 5682 5689 5695 5699 5705 5712 5719 5720 5717 5712 5709 5708 5707 5711 5708 5704 5699 5697 5696 5694 5691 5688 5687 5685 5684 5681 5679 5677 5675 5673 5671 5668 5667 5664 5662 5659 5657 5655
5594 5593 5599 5616 5634 5633 5628 5650 5667 5675 5672 5673 5679 5685 5697 5704 5710 5716 5722 5719 5715 5712 5707 5706 5709 5709 5706 5700 5695 5693 5692 5691 5690 5686 5684 5683 5681 5678 5675 5674 5673 5671 5668 5665 5663 5660 5657 5653 5651
5587 5589 5598 5608 5622 5620 5617 5638 5650 5663 5665 5673 5674 5682 5687 5697 5709 5716 5720 5721 5716 5714 5711 5706 5706 5706 5703 5699 5696 5691 5689 5687 5686 5685 5684 5679 5678 5677 5674 5673 5671 5669 5666 5662 5661 5658 5654 5652 5650
5582 5585 5590 5607 5609 5601 5606 5623 5635 5650 5655 5660 5670 5680 5688 5692 5705 5713 5716 5721 5718 5715 5708 5705 5703 5700 5696 5695 5693 5689 5688 5685 5683 5682 5681 5679 5676 5674 5674 5672 5669 5666 5663 5660 5659 5655 5651 5647 5646
5569 5569 5583 5592 5594 5582 5590 5604 5628 5635 5651 5664 5671 5679 5681 5693 5699 5708 5712 5712 5713 5714 5708 5703 5702 5699 5694 5692 5692 5691 5687 5686 5685 5681 5681 5680 5677 5675 5672 5670 5667 5665 5662 5658 5656 5654 5649 5646 5643
5560 5564 5573 5570 5577 5578 5571 5580 5615 5636 5651 5663 5678 5678 5687 5689 5695 5699 5706 5708 5710 5710 5707 5701 5701 5702 5699 5694 5685 5683 5681 5681 5681 5681 5678 5678 5675 5673 5671 5669 5666 5663 5661 5660 5656 5654 5651 5646 5642
5547 5564 5560 5558 5552 5557 5565 5563 5606 5620 5636 5656 5665 5670 5680 5687 5692 5696 5701 5703 5701 5708 5707 5705 5702 5699 5698 5692 5684 5684 5684 5684 5691 5687 5682 5679 5675 5673 5671 5669 5667 5664 5661 5658 5655 5652 5651 5645 5642
5547 5554 5551 5549 5550 5549 5553 5547 5602 5613 5623 5647 5653 5663 5673 5684 5690 5694 5699 5703 5706 5702 5703 5702 5698 5697 5694 5688 5685 5680 5679 5685 5682 5682 5681 5679 5677 5674 5671 5669 5666 5664 5662 5660 5656 5652 5649 5647 5645
5543 5544 5543 5540 5536 5534 5561 5545 5577 5607 5631 5646 5656 5665 5676 5676 5681 5694 5702 5700 5702 5701 5697 5695 5694 5693 5691 5686 5681 5679 5680 5679 5675 5679 5680 5679 5678 5676 5673 5670 5668 5666 5663 5662 5658 5653 5650 5650 5646
5525 5525 5521 5521 5523 5539 5567 5539 5567 5615 5642 5640 5655 5660 5667 5668 5672 5680 5688 5687 5692 5693 5689 5690 5690 5686 5686 5687 5683 5680 5680 5677 5677 5678 5680 5677 5676 5677 5679 5673 5668 5668 5665 5660 5657 5653 5652 5651 5649
5520 5523 5521 5516 5525 5529 5536 5531 5575 5614 5639 5643 5647 5653 5657 5663 5668 5670 5678 5680 5684 5685 5685 5685 5687 5688 5686 5686 5687 5683 5680 5678 5680 5679 5681 5681 5679 5680 5677 5674 5670 5666 5663 5660 5655 5652 5651 5650 5649
5522 5513 5534 5514 5515 5493 5525 5545 5581 5611 5626 5631 5631 5634 5639 5651 5657 5662 5667 5675 5678 5676 5675 5674 5679 5681 5680 5682 5683 5681 5678 5675 5678 5679 5679 5678 5678 5678 5675 5673 5668 5664 5660 5657 5652 5650 5648 5645 5643
5524 5527 5507 5502 5488 5509 5519 5532 5560 5604 5615 5617 5615 5615 5621 5634 5641 5650 5653 5662 5664 5663 5663 5663 5664 5670 5674 5675 5675 5677 5676 5674 5674 5673 5675 5675 5676 5675 5673 5670 5667 5663 5658 5656 5651 5649 5647 5641 5640
5506 5508 5507 5508 5496 5510 5519 5526 5582 5590 5592 5596 5596 5597 5606 5617 5626 5634 5641 5645 5648 5647 5650 5652 5652 5655 5661 5668 5670 5671 5671 5675 5672 5672 5672 5674 5672 5670 5669 5670 5666 5660 5656 5654 5649 5648 5645 5643 5639
5516 5515 5509 5493 5490 5483 5504 5527 5579 5580 5581 5583 5579 5582 5588 5594 5605 5611 5619 5628 5633 5632 5632 5638 5642 5645 5651 5658 5661 5665 5669 5672 5673 5674 5671 5670 5669 5668 5666 5664 5663 5662 5659 5656 5649 5645 5644 5641 5637